Regional Weather Roundup
Issued by NWS

Home | Current Version | Previous Version | Graphics & Text | Print | Product List | Glossary On
Versions: 1 2 3 4 5 6 7 8 9 10 11 12 13 14 15 16 17 18 19 20 21 22 23 24 25 26 27 28 29 30 31 32 33 34 35 36 37 38 39 40 41 42 43 44 45 46 47 48 49 50
000
ASUS43 KIND 122309
RWRIN

WEATHER ROUNDUP FOR INDIANA
NATIONAL WEATHER SERVICE INDIANAPOLIS IN
600 PM EST TUE DEC 12 2017

NOTE: "FAIR" INDICATES FEW OR NO CLOUDS BELOW 12,000 FEET WITH NO
SIGNIFICANT WEATHER AND/OR OBSTRUCTIONS TO VISIBILITY.

* - STATION DOES NOT REPORT WEATHER SUCH AS PRECIPITATION OR FOG.

+ - STATION NOT QUALITY CONTROLLED BY THE NATIONAL WEATHER SERVICE.
    USE DATA WITH CAUTION...ESPECIALLY DEWPOINT AND RELATIVE
    HUMIDITY OBSERVATIONS.

INZ001>003-010>013-019-020-130000-
NORTHWEST INDIANA

CITY           SKY/WX    TMP DP  RH WIND       PRES   REMARKS
GARY /AIRPORT/ PTCLDY    21   7  53 W15       30.04F WCI   8
KNOX *+        PTCLDY    19  10  68 NW6       30.02R WCI  11
LA PORTE +     CLOUDY    20   9  61 NW8       30.00S WCI  11
MICHIGAN CITY+ CLOUDY    23  10  58 NW9G16    30.01F WCI  13
MONTICELLO +   CLEAR     20   6  54 NW9       30.03R WCI   9
RENSSELAER +   PTCLDY    21   5  49 W9        30.04S WCI  11
VALPARAISO     PTCLDY    20   8  60 W9        30.01S WCI   9

$$

LMZ046-743>745-130000-
SOUTHERN LAKE MICHIGAN

STATION/POSITION TIME  TEMP    WIND        PRES    WAVE
                       AIR SEA DIR/SP/G            HT
                 (UTC) (F)     (DEG/KT/KT) (MB)    (FT)
BURNS HARBOR     2240   24     310/ 16/ 21 1016.6F
MICHIGAN CITY    2240   23     290/ 19/ 22   N/A

$$

INZ004-005-014>016-021>024-130000-
NORTH CENTRAL INDIANA

CITY           SKY/WX    TMP DP  RH WIND       PRES   REMARKS
ELKHART        LGT SNOW  19  16  86 W9        29.96S WCI   9
GOSHEN         LGT SNOW  20  15  81 W14       29.96R WCI   7
LOGANSPORT +   PTCLDY    21   7  53 NW8       30.03R WCI  12
PERU/GRISSOM   PTCLDY    20   7  55 NW9       30.00R WCI  10
ROCHESTER +    CLOUDY    23   9  54 W12       30.01S WCI  12
SOUTH BEND     FLURRIES  20  13  74 NW10      29.98S WCI   9
WARSAW +       CLOUDY    19  12  73 W17       29.97R WCI   4

$$

INZ006>009-017-018-025>027-130000-
NORTHEAST INDIANA

CITY           SKY/WX    TMP DP  RH WIND       PRES   REMARKS
AUBURN +       LGT SNOW  21  16  79 NW7       29.95R WCI  13
FORT WAYNE     FLURRIES  20  16  84 W17G23    29.96R WCI   5
HUNTINGTON +   CLOUDY    20   9  62 NW12G18   29.98R WCI   8
KENDALLVILLE + FLURRIES  19  15  84 NW5       29.93S WCI  12

$$

INZ028-029-035-036-043>045-051>053-130000-
WEST CENTRAL INDIANA

CITY           SKY/WX    TMP DP  RH WIND       PRES   REMARKS
CRAWFORDSVL +  PTCLDY    20   6  55 W10         N/A  WCI   8
GREENCASTLE +  PTCLDY    23   5  46 NW7       30.05R WCI  15
LAFAYETTE      CLEAR     20   8  60 NW7       30.04S WCI  11
TERRE HAUTE    CLEAR     26   4  38 NW9       30.07F WCI  17

$$

INZ030>032-037>040-046>048-054>057-064-065-130000-
CENTRAL INDIANA

CITY           SKY/WX    TMP DP  RH WIND       PRES   REMARKS
COLUMBUS       CLEAR     25   3  39 NW9       30.03R WCI  15
FRANKFORT +    CLEAR     24  10  54 NW12      30.04R WCI  13
INDIANAPOLIS   PTCLDY    23   6  48 W15       30.03R WCI  10
-EAGLE CREEK   PTCLDY    24   6  46 NW15      30.02R WCI  11
KOKOMO +       CLEAR     20   7  57 NW13      30.01R WCI   7
MARION +       PTCLDY    20   9  61 NW13G20   30.00R HAZE    WCI   7
MT COMFORT *+  CLEAR     21  10  63 NW14G23   30.01R WCI   8
SHELBYVILLE    PTCLDY    24   7  48 NW10      30.01R WCI  14
ZIONSVILLE +   CLEAR     21   7  55 NW9G17    30.02R WCI  10

$$

INZ033-034-041-042-049-050-058-059-130000-
EAST CENTRAL INDIANA

CITY           SKY/WX    TMP DP  RH WIND       PRES   REMARKS
MUNCIE         MOCLDY    23   7  50 NW14G22   29.98R WCI  11
RICHMOND +     CLOUDY    21  10  63 NW14G21   29.96R WCI   8

$$

INZ060-061-067>069-081>083-085>088-130000-
SOUTHWEST INDIANA

CITY           SKY/WX    TMP DP  RH WIND       PRES   REMARKS
EVANSVILLE     CLEAR     30   8  39 W8        30.11S WCI  22
HUNTINGBURG +  CLEAR     27  11  51 NW8       30.09R WCI  19
WASHINGTON +   CLEAR     28   8  43 NW8       30.09S WCI  19

$$

INZ062-063-066-070>080-084-089>092-130000-
SOUTH CENTRAL AND SOUTHEAST INDIANA

CITY           SKY/WX    TMP DP  RH WIND       PRES   REMARKS
BEDFORD +      CLEAR     27   5  39 W7        30.05R WCI  19
BLOOMINGTON    PTCLDY    25   6  44 NW8       30.04R WCI  16
MADISON *+     PTCLDY    28   7  40 W13       30.03R WCI  18
NORTH VERNON + CLEAR     23   7  50 W8        30.02R WCI  14
SEYMOUR +      CLEAR     27   7  43 W14G20    30.04R WCI  15

$$




USA.gov is the U.S. government's official web portal to all federal, state and local government web resources and services.